Weather History for Cape Cod CGAS, MA

Change the Weather History Date:

Thursday, February 14, 2013

  Actual Average Record
Temperature  
Mean Temperature 0 °C -  
Max Temperature 5 °C 2 °C 12 °C (2000)
Min Temperature -4 °C -6 °C -16 °C (2003)
Degree Days  
Heating Degree Days 32    
Moisture  
Dew Point -3 °C    
Average Humidity 79    
Maximum Humidity 100    
Minimum Humidity 40    
Precipitation  
Precipitation 2.03 mm - - ()
Sea Level Pressure  
Sea Level Pressure 1011 hPa    
Wind  
Wind Speed 10 km/h (North)    
Max Wind Speed 21 km/h    
Max Gust Speed 32 km/h    
Visibility 14 kilometers    
Events Snow    
Averages and records for this station are not official NWS values.
T = Trace of Precipitation, MM = Missing Value Source: NWS Daily Summary

Daily Weather History Graph

Daily Weather History Graph

Search for Another Location

Airport:

Trip Planner

Search our weather history database for the weather conditions in past years. The results will help you decide how hot, cold, wet, or windy it might be!

Date:

Astronomy

Feb. 14, 2013 Rise Set
Actual Time 6:38 AM EST 5:14 PM EST
Civil Twilight 6:09 AM EST 5:43 PM EST
Nautical Twilight 5:37 AM EST 6:15 PM EST
Astronomical Twilight 5:05 AM EST 6:47 PM EST
Moon 8:34 AM EST (2/14) 10:19 PM EST (2/14)
Length of Visible Light 11h 33m
Length of Day
10h 36m
Waxing Crescent, 21% of the Moon is Illuminated
Feb 14
Waxing Crescent
Feb 17
First Quarter
Feb 25
Full
Mar 4
Last Quarter
Mar 11
New

Hourly Weather History & Observations

Time (EST) Temp. Windchill Dew Point Humidity Pressure Visibility Wind Dir Wind Speed Gust Speed Precip Events Conditions
12:15 AM 0.0 °C -2.5 °C -3.0 °C 80% 1006.0 hPa 16.1 km North 7.4 km/h / 2.1 m/s - N/A   Overcast
12:35 AM 0.0 °C -3.1 °C -3.0 °C 80% 1005.3 hPa 16.1 km North 9.3 km/h / 2.6 m/s - N/A   Overcast
12:55 AM 0.0 °C -2.5 °C -2.0 °C 87% 1005.3 hPa 16.1 km North 7.4 km/h / 2.1 m/s - N/A   Overcast
1:15 AM 0.0 °C - -2.0 °C 87% 1005.6 hPa 9.7 km Calm Calm - N/A Snow Light Snow
1:35 AM 0.0 °C -4.0 °C -2.0 °C 87% 1005.6 hPa 1.6 km NE 13.0 km/h / 3.6 m/s - 4.6 mm Snow Light Snow
1:55 AM 0.0 °C -1.8 °C -1.0 °C 93% 1006.0 hPa 1.6 km NW 5.6 km/h / 1.5 m/s - 14.0 mm Snow Light Snow
2:15 AM 0.0 °C -3.6 °C -1.0 °C 93% 1006.0 hPa 1.2 km NNW 11.1 km/h / 3.1 m/s - 17.3 mm Snow Light Snow
2:35 AM 0.0 °C -1.8 °C 0.0 °C 100% 1005.3 hPa 1.2 km North 5.6 km/h / 1.5 m/s - 43.2 mm Snow Light Snow
2:55 AM 0.0 °C -3.1 °C 0.0 °C 100% 1005.0 hPa 2.0 km NNE 9.3 km/h / 2.6 m/s - 55.1 mm Snow Light Snow
3:15 AM 0.0 °C -3.6 °C 0.0 °C 100% 1005.0 hPa 1.6 km NNE 11.1 km/h / 3.1 m/s - 6.9 mm Snow Light Snow
3:35 AM 0.0 °C -3.1 °C 0.0 °C 100% 1005.0 hPa 1.6 km North 9.3 km/h / 2.6 m/s - 25.1 mm Snow Light Snow
3:55 AM 0.0 °C -4.0 °C 0.0 °C 100% 1005.0 hPa 2.4 km North 13.0 km/h / 3.6 m/s - 38.6 mm Snow Light Snow
4:15 AM 0.0 °C -3.6 °C 0.0 °C 100% 1005.0 hPa 6.4 km North 11.1 km/h / 3.1 m/s - 0.5 mm Snow Light Snow
4:35 AM 0.0 °C -4.0 °C 0.0 °C 100% 1005.3 hPa 16.1 km NNW 13.0 km/h / 3.6 m/s - 0.5 mm   Overcast
4:55 AM 0.0 °C -3.6 °C 0.0 °C 100% 1006.0 hPa 16.1 km NNW 11.1 km/h / 3.1 m/s - 0.5 mm   Overcast
5:15 AM 0.0 °C -3.1 °C -1.0 °C 93% 1006.0 hPa 16.1 km North 9.3 km/h / 2.6 m/s - N/A   Overcast
5:35 AM 0.0 °C -3.1 °C -1.0 °C 93% 1006.3 hPa 16.1 km NNW 9.3 km/h / 2.6 m/s - N/A   Scattered Clouds
5:55 AM -2.0 °C -5.5 °C -2.0 °C 100% 1006.7 hPa 16.1 km NW 9.3 km/h / 2.6 m/s - N/A   Clear
6:15 AM -2.0 °C -4.9 °C -2.0 °C 100% 1006.7 hPa 16.1 km NW 7.4 km/h / 2.1 m/s - N/A   Clear
6:35 AM -2.0 °C -4.9 °C -3.0 °C 93% 1007.0 hPa 16.1 km NW 7.4 km/h / 2.1 m/s - N/A   Partly Cloudy
6:55 AM -3.0 °C -6.7 °C -3.0 °C 100% 1007.3 hPa 16.1 km NW 9.3 km/h / 2.6 m/s - N/A   Partly Cloudy
7:15 AM -2.0 °C -6.0 °C -3.0 °C 93% 1007.3 hPa 16.1 km NNW 11.1 km/h / 3.1 m/s - N/A   Scattered Clouds
7:35 AM -1.0 °C -4.8 °C -2.0 °C 93% 1008.0 hPa 16.1 km NW 11.1 km/h / 3.1 m/s - N/A   Overcast
7:55 AM -1.0 °C -4.3 °C -2.0 °C 93% 1008.4 hPa 16.1 km NNW 9.3 km/h / 2.6 m/s - N/A   Overcast
8:15 AM -1.0 °C -5.2 °C -2.0 °C 93% 1009.4 hPa 16.1 km NW 13.0 km/h / 3.6 m/s - N/A   Mostly Cloudy
8:35 AM 0.0 °C -3.1 °C -1.0 °C 93% 1009.0 hPa 16.1 km NNW 9.3 km/h / 2.6 m/s - N/A   Mostly Cloudy
8:55 AM 0.0 °C -4.0 °C -1.0 °C 93% 1009.7 hPa 16.1 km NW 13.0 km/h / 3.6 m/s - N/A   Partly Cloudy
9:15 AM 1.0 °C -2.4 °C 0.0 °C 93% 1009.7 hPa 16.1 km NW 11.1 km/h / 3.1 m/s - N/A   Clear
9:35 AM 2.0 °C -1.5 °C 0.0 °C 87% 1010.4 hPa 16.1 km NNW 13.0 km/h / 3.6 m/s - N/A   Mostly Cloudy
9:55 AM 2.0 °C -2.7 °C -1.0 °C 81% 1010.7 hPa 16.1 km North 20.4 km/h / 5.7 m/s 25.9 km/h / 7.2 m/s N/A   Overcast
10:15 AM 3.0 °C -0.3 °C -3.0 °C 65% 1011.1 hPa 16.1 km North 13.0 km/h / 3.6 m/s - N/A   Overcast
10:35 AM 3.0 °C -1.0 °C -3.0 °C 65% 1011.4 hPa 16.1 km North 16.7 km/h / 4.6 m/s 31.5 km/h / 8.7 m/s N/A   Overcast
10:55 AM 3.0 °C -0.7 °C -3.0 °C 65% 1011.7 hPa 16.1 km North 14.8 km/h / 4.1 m/s - N/A   Mostly Cloudy
11:15 AM 3.0 °C -1.2 °C -3.0 °C 65% 1011.7 hPa 16.1 km North 18.5 km/h / 5.1 m/s 29.6 km/h / 8.2 m/s N/A   Overcast
11:35 AM 3.0 °C -1.5 °C -3.0 °C 65% 1012.1 hPa 16.1 km NNE 20.4 km/h / 5.7 m/s 27.8 km/h / 7.7 m/s N/A   Mostly Cloudy
11:55 AM 4.0 °C 0.6 °C -3.0 °C 61% 1012.1 hPa 16.1 km NNE 14.8 km/h / 4.1 m/s - N/A   Scattered Clouds
12:15 PM 3.0 °C 0.0 °C -4.0 °C 60% 1012.4 hPa 16.1 km North 11.1 km/h / 3.1 m/s 27.8 km/h / 7.7 m/s N/A   Mostly Cloudy
12:35 PM 3.0 °C -0.3 °C -4.0 °C 60% 1012.4 hPa 16.1 km NNE 13.0 km/h / 3.6 m/s - N/A   Overcast
12:55 PM 3.0 °C -1.0 °C -4.0 °C 60% 1012.8 hPa 16.1 km NE 16.7 km/h / 4.6 m/s - N/A   Overcast
1:15 PM 3.0 °C -0.7 °C -4.0 °C 60% 1012.8 hPa 16.1 km NNE 14.8 km/h / 4.1 m/s - N/A   Mostly Cloudy
1:35 PM 4.0 °C 0.6 °C -5.0 °C 52% 1012.8 hPa 16.1 km NE 14.8 km/h / 4.1 m/s - N/A   Scattered Clouds
1:55 PM 4.0 °C 2.1 °C -6.0 °C 49% 1012.8 hPa 16.1 km NE 7.4 km/h / 2.1 m/s - N/A   Partly Cloudy
2:15 PM 4.0 °C 0.9 °C -6.0 °C 49% 1012.8 hPa 16.1 km NE 13.0 km/h / 3.6 m/s - N/A   Clear
2:35 PM 4.0 °C 1.7 °C -6.0 °C 49% 1012.8 hPa 16.1 km East 9.3 km/h / 2.6 m/s - N/A   Clear
2:55 PM 4.0 °C 2.1 °C -6.0 °C 49% 1013.1 hPa 16.1 km ENE 7.4 km/h / 2.1 m/s - N/A   Clear
3:15 PM 4.0 °C - -7.0 °C 45% 1013.4 hPa 16.1 km Calm Calm - N/A   Clear
3:35 PM 4.0 °C - -6.0 °C 49% 1013.8 hPa 16.1 km Calm Calm - N/A   Clear
3:55 PM 4.0 °C 2.8 °C -6.0 °C 49% 1013.8 hPa 16.1 km SSW 5.6 km/h / 1.5 m/s - N/A   Clear
4:15 PM 4.0 °C -0.2 °C -5.0 °C 52% 1014.4 hPa 16.1 km SSW 20.4 km/h / 5.7 m/s - N/A   Clear
4:35 PM 3.0 °C -0.7 °C -5.0 °C 56% 1014.1 hPa 16.1 km South 14.8 km/h / 4.1 m/s - N/A   Clear
4:55 PM 3.0 °C 1.0 °C -5.0 °C 56% 1014.4 hPa 16.1 km SSE 7.4 km/h / 2.1 m/s - N/A   Clear
5:15 PM 1.0 °C -1.4 °C -5.0 °C 65% 1014.8 hPa 16.1 km South 7.4 km/h / 2.1 m/s - N/A   Clear
5:35 PM 0.0 °C -3.1 °C -5.0 °C 69% 1015.5 hPa 16.1 km SSW 9.3 km/h / 2.6 m/s - N/A   Clear
5:55 PM 0.0 °C -3.6 °C -5.0 °C 69% 1015.8 hPa 16.1 km South 11.1 km/h / 3.1 m/s - N/A   Clear
6:15 PM 0.0 °C -3.1 °C -5.0 °C 69% 1016.1 hPa 16.1 km SSW 9.3 km/h / 2.6 m/s - N/A   Clear
6:35 PM 0.0 °C -2.5 °C -4.0 °C 75% 1016.1 hPa 16.1 km South 7.4 km/h / 2.1 m/s - N/A   Clear
6:55 PM -1.0 °C -3.7 °C -4.0 °C 80% 1015.8 hPa 16.1 km SSE 7.4 km/h / 2.1 m/s - N/A   Clear
7:15 PM -2.0 °C -4.1 °C -4.0 °C 86% 1015.8 hPa 16.1 km SE 5.6 km/h / 1.5 m/s - N/A   Clear
7:35 PM -2.0 °C -4.1 °C -4.0 °C 86% 1015.8 hPa 16.1 km SSE 5.6 km/h / 1.5 m/s - N/A   Partly Cloudy
7:55 PM -2.0 °C -4.9 °C -4.0 °C 86% 1016.1 hPa 16.1 km SSE 7.4 km/h / 2.1 m/s - N/A   Mostly Cloudy
8:15 PM -2.0 °C -4.9 °C -4.0 °C 86% 1016.1 hPa 16.1 km South 7.4 km/h / 2.1 m/s - N/A   Overcast
8:35 PM -2.0 °C -4.9 °C -4.0 °C 86% 1016.1 hPa 16.1 km South 7.4 km/h / 2.1 m/s - N/A   Overcast
8:55 PM -2.0 °C - -4.0 °C 86% 1016.1 hPa 16.1 km Calm Calm - N/A   Scattered Clouds
9:15 PM -2.0 °C -4.1 °C -4.0 °C 86% 1016.5 hPa 16.1 km SSE 5.6 km/h / 1.5 m/s - N/A   Clear
9:35 PM -2.0 °C - -4.0 °C 86% 1016.5 hPa 16.1 km Calm Calm - N/A   Scattered Clouds
9:55 PM -2.0 °C - -3.0 °C 93% 1016.5 hPa 16.1 km Calm Calm - N/A   Partly Cloudy
10:15 PM -3.0 °C - -4.0 °C 93% 1016.5 hPa 16.1 km Calm Calm - N/A   Clear
10:35 PM -3.0 °C - -4.0 °C 93% 1016.5 hPa 16.1 km Calm Calm - N/A   Clear
10:55 PM -4.0 °C -6.4 °C -4.0 °C 100% 1016.5 hPa 16.1 km SSE 5.6 km/h / 1.5 m/s - N/A   Clear
11:15 PM -3.0 °C -5.2 °C -4.0 °C 93% 1016.5 hPa 16.1 km SSE 5.6 km/h / 1.5 m/s - N/A   Clear
11:55 PM -4.0 °C - -5.0 °C 93% 1016.8 hPa 16.1 km Calm Calm - N/A   Clear